Total_Precipitation_Accumulation
0.34 0.34 0.33 0.32 0.28 0.27 0.25 0.21 0.18 0.15 0.12 0.11 0.09 0.08 0.06 0.04 0.02 0.01 0.01 0.01 0.01 0.02 0.03 0.06 0.10 0.13 0.14 0.16 0.18 0.18 0.15 0.09 0.06 0.04 0.02 0.01 0.01 0.01 0.01 0.01 0.01 0.02 0.03
0.41 0.40 0.37 0.37 0.34 0.34 0.32 0.30 0.27 0.25 0.22 0.19 0.15 0.11 0.09 0.07 0.04 0.02 0.02 0.02 0.01 0.01 0.02 0.05 0.10 0.15 0.19 0.23 0.24 0.25 0.21 0.17 0.14 0.10 0.07 0.05 0.04 0.03 0.02 0.02 0.02 0.01 0.01
0.45 0.45 0.42 0.37 0.35 0.38 0.40 0.42 0.41 0.38 0.32 0.28 0.23 0.20 0.17 0.13 0.10 0.07 0.05 0.03 0.02 0.02 0.02 0.04 0.09 0.14 0.21 0.26 0.30 0.32 0.30 0.25 0.18 0.14 0.12 0.10 0.08 0.07 0.05 0.04 0.03 0.03 0.02
0.56 0.56 0.52 0.45 0.43 0.46 0.47 0.46 0.45 0.44 0.39 0.33 0.29 0.28 0.26 0.23 0.18 0.15 0.12 0.08 0.06 0.04 0.04 0.05 0.08 0.13 0.19 0.22 0.28 0.35 0.38 0.32 0.22 0.17 0.15 0.14 0.12 0.11 0.10 0.08 0.07 0.05 0.05
0.62 0.62 0.57 0.54 0.54 0.51 0.50 0.50 0.45 0.43 0.41 0.40 0.38 0.35 0.31 0.27 0.24 0.22 0.19 0.16 0.12 0.10 0.09 0.08 0.07 0.07 0.10 0.14 0.20 0.31 0.41 0.40 0.31 0.24 0.20 0.18 0.16 0.14 0.13 0.12 0.12 0.10 0.08
0.72 0.68 0.63 0.66 0.65 0.60 0.53 0.51 0.50 0.49 0.45 0.46 0.45 0.40 0.36 0.32 0.28 0.25 0.23 0.22 0.22 0.20 0.18 0.15 0.12 0.10 0.08 0.11 0.14 0.21 0.30 0.37 0.36 0.32 0.28 0.26 0.24 0.22 0.20 0.20 0.20 0.19 0.17
0.88 0.87 0.79 0.76 0.77 0.69 0.63 0.66 0.71 0.66 0.60 0.59 0.54 0.41 0.33 0.31 0.30 0.27 0.24 0.21 0.19 0.19 0.17 0.16 0.15 0.12 0.11 0.11 0.12 0.16 0.22 0.29 0.35 0.39 0.37 0.34 0.32 0.29 0.30 0.31 0.31 0.29 0.27
1.07 1.05 1.03 1.01 0.98 0.89 0.79 0.77 0.81 0.79 0.75 0.76 0.71 0.61 0.41 0.29 0.25 0.23 0.23 0.20 0.18 0.16 0.15 0.15 0.14 0.12 0.11 0.10 0.11 0.13 0.17 0.25 0.33 0.41 0.45 0.42 0.40 0.38 0.39 0.42 0.44 0.43 0.39
1.30 1.22 1.20 1.24 1.20 1.10 0.98 0.93 0.92 0.90 0.90 0.89 0.82 0.80 0.59 0.37 0.27 0.22 0.18 0.16 0.17 0.17 0.16 0.16 0.15 0.14 0.13 0.12 0.11 0.13 0.14 0.18 0.29 0.42 0.51 0.52 0.49 0.48 0.50 0.54 0.57 0.58 0.55
1.43 1.41 1.38 1.35 1.33 1.28 1.16 1.11 1.10 1.07 1.02 0.96 0.90 0.77 0.67 0.53 0.44 0.31 0.20 0.17 0.16 0.16 0.17 0.18 0.18 0.17 0.17 0.17 0.16 0.16 0.17 0.17 0.24 0.40 0.57 0.69 0.71 0.71 0.73 0.75 0.76 0.80 0.78
1.46 1.43 1.42 1.36 1.27 1.23 1.22 1.20 1.17 1.13 1.03 0.95 0.88 0.82 0.77 0.63 0.50 0.45 0.31 0.20 0.18 0.16 0.17 0.18 0.19 0.20 0.22 0.23 0.23 0.25 0.27 0.26 0.30 0.41 0.59 0.79 0.94 1.01 1.04 1.03 1.00 1.00 0.98
1.51 1.46 1.44 1.35 1.25 1.17 1.13 1.14 1.15 1.11 1.06 0.99 0.92 0.87 0.84 0.76 0.61 0.56 0.51 0.37 0.30 0.23 0.20 0.20 0.22 0.23 0.26 0.30 0.33 0.42 0.43 0.42 0.44 0.54 0.71 0.90 1.06 1.15 1.20 1.24 1.27 1.24 1.17
1.38 1.37 1.41 1.38 1.33 1.27 1.28 1.26 1.24 1.18 1.14 1.08 1.00 0.93 0.88 0.81 0.73 0.72 0.73 0.59 0.46 0.34 0.28 0.25 0.25 0.29 0.33 0.39 0.44 0.60 0.62 0.65 0.65 0.70 0.87 1.05 1.11 1.12 1.13 1.19 1.34 1.42 1.39
1.34 1.32 1.33 1.34 1.34 1.29 1.26 1.26 1.26 1.24 1.22 1.18 1.09 1.00 0.91 0.82 0.81 0.83 0.87 0.90 0.84 0.64 0.48 0.41 0.39 0.43 0.50 0.57 0.69 0.81 0.74 0.84 0.86 0.91 1.03 1.19 1.15 1.04 0.98 1.01 1.10 1.22 1.24
1.32 1.29 1.28 1.23 1.21 1.18 1.15 1.15 1.14 1.12 1.11 1.10 1.06 1.03 0.97 0.90 0.91 0.94 0.99 1.09 1.21 1.12 0.85 0.64 0.62 0.64 0.70 0.75 0.86 0.83 0.77 0.93 0.98 0.99 1.03 1.02 0.94 0.87 0.84 0.85 0.87 0.91 0.93
1.06 1.12 1.16 1.14 1.10 1.08 1.06 1.06 1.02 0.98 0.98 0.94 0.91 0.94 0.95 0.93 0.95 0.98 1.04 1.11 1.21 1.28 1.14 0.81 0.70 0.72 0.81 0.87 0.95 0.86 0.80 0.94 0.91 0.90 0.90 0.85 0.78 0.74 0.71 0.69 0.67 0.68 0.69
0.86 0.90 1.00 1.07 1.05 1.02 1.00 0.98 0.94 0.90 0.88 0.86 0.84 0.85 0.87 0.86 0.91 0.93 0.97 1.05 1.15 1.28 1.32 1.07 0.90 0.88 0.91 0.90 0.87 0.77 0.70 0.70 0.69 0.76 0.72 0.67 0.63 0.61 0.58 0.57 0.57 0.58 0.58
0.77 0.76 0.76 0.79 0.85 0.88 0.89 0.90 0.88 0.83 0.80 0.79 0.78 0.79 0.80 0.82 0.88 0.92 0.99 1.06 1.12 1.18 1.22 1.12 0.93 0.84 0.78 0.71 0.66 0.61 0.55 0.52 0.50 0.59 0.57 0.52 0.50 0.47 0.45 0.45 0.47 0.47 0.46
0.60 0.64 0.64 0.63 0.62 0.63 0.65 0.70 0.76 0.78 0.76 0.75 0.77 0.81 0.83 0.86 0.90 0.93 0.99 1.04 1.05 1.03 1.01 0.95 0.80 0.67 0.60 0.55 0.55 0.52 0.45 0.42 0.40 0.45 0.47 0.43 0.40 0.37 0.35 0.35 0.37 0.38 0.37
0.34 0.37 0.42 0.45 0.48 0.50 0.50 0.52 0.56 0.65 0.71 0.75 0.76 0.80 0.86 0.94 1.01 1.04 1.05 1.03 0.99 0.94 0.89 0.84 0.76 0.66 0.56 0.49 0.48 0.49 0.45 0.39 0.35 0.33 0.38 0.37 0.36 0.35 0.31 0.28 0.26 0.26 0.28
0.15 0.19 0.24 0.29 0.33 0.37 0.42 0.46 0.47 0.52 0.57 0.65 0.74 0.81 0.87 0.97 1.00 0.95 0.86 0.80 0.74 0.73 0.73 0.73 0.68 0.59 0.51 0.46 0.44 0.39 0.38 0.37 0.34 0.30 0.31 0.30 0.29 0.27 0.26 0.26 0.25 0.25 0.25
0.11 0.13 0.17 0.22 0.27 0.31 0.43 0.44 0.41 0.44 0.53 0.59 0.64 0.69 0.76 0.80 0.74 0.70 0.65 0.60 0.61 0.64 0.64 0.58 0.51 0.44 0.36 0.32 0.31 0.35 0.39 0.44 0.43 0.30 0.28 0.29 0.27 0.28 0.25 0.23 0.26 0.27 0.27
0.18 0.19 0.20 0.22 0.26 0.34 0.45 0.46 0.51 0.49 0.53 0.57 0.57 0.55 0.52 0.52 0.53 0.45 0.46 0.46 0.46 0.48 0.45 0.40 0.38 0.33 0.29 0.27 0.32 0.38 0.39 0.39 0.32 0.24 0.28 0.32 0.28 0.27 0.22 0.22 0.27 0.25 0.27
0.36 0.36 0.36 0.36 0.39 0.48 0.54 0.51 0.50 0.46 0.46 0.45 0.41 0.36 0.34 0.33 0.34 0.36 0.38 0.40 0.34 0.29 0.27 0.25 0.23 0.22 0.24 0.27 0.33 0.40 0.40 0.39 0.33 0.29 0.31 0.36 0.31 0.25 0.21 0.21 0.26 0.26 0.28
0.63 0.62 0.62 0.60 0.57 0.55 0.51 0.41 0.35 0.31 0.30 0.28 0.25 0.23 0.22 0.21 0.25 0.30 0.31 0.31 0.29 0.27 0.26 0.27 0.27 0.26 0.28 0.30 0.33 0.37 0.44 0.52 0.48 0.35 0.30 0.31 0.28 0.25 0.24 0.24 0.26 0.31 0.32
0.61 0.58 0.56 0.51 0.45 0.38 0.32 0.23 0.18 0.15 0.15 0.14 0.14 0.14 0.17 0.18 0.24 0.30 0.28 0.26 0.26 0.25 0.26 0.28 0.27 0.26 0.25 0.26 0.30 0.28 0.32 0.49 0.51 0.39 0.23 0.25 0.28 0.33 0.43 0.31 0.28 0.32 0.35